Dewpoint
17 16 14 16 15 20 26 23 27 22 18 17 15 11 6 5 5 4 6 8 10 10 6 5 7 6 5 10 15 15 19 19 19 25 30 51 48 45 48 46 48 50 50 47 48 53 53 54 57 60 59 62 63 63 63 62 63 62 62 63 63 64 65 64 60 60 59 59 59 64 58 56 61 56 58 59 59 57 57 58 57 59 59 60 59 59
21 18 18 18 24 29 28 30 30 26 24 16 15 10 6 7 8 4 5 11 11 18 11 13 10 9 12 14 13 17 19 15 20 23 29 24 42 43 43 50 48 50 47 45 50 53 54 51 58 63 63 61 61 62 62 62 63 63 64 63 64 63 63 63 63 65 64 62 54 59 56 55 56 50 54 56 57 58 59 60 60 61 63 62 61 61
21 16 16 20 29 27 28 28 24 24 21 18 14 10 6 4 1 15 15 15 12 19 16 10 8 9 12 11 12 17 20 26 24 26 27 29 26 27 25 38 49 48 46 46 48 51 51 54 57 61 63 62 63 63 62 63 64 64 64 64 64 62 62 63 63 62 60 60 61 63 60 61 53 54 57 54 56 57 53 63 59 62 63 63 58 59
18 13 18 13 27 25 23 22 22 23 24 16 16 11 6 5 4 16 23 14 15 19 15 11 9 14 23 17 18 21 18 24 29 24 29 30 29 30 27 44 48 49 47 46 47 48 50 52 56 59 60 60 60 62 62 63 63 63 63 64 63 62 62 62 62 61 61 61 61 60 59 59 58 55 57 58 59 58 56 55 59 62 63 59 57 55
8 19 22 25 24 21 22 21 21 19 12 19 18 10 9 5 3 3 15 22 28 26 28 19 19 16 18 14 16 20 20 25 22 20 21 23 20 32 43 49 50 47 49 48 47 49 50 54 55 56 58 59 60 62 62 63 62 62 63 64 63 61 61 61 61 61 60 60 60 60 59 57 57 59 57 56 57 58 57 57 60 62 60 58 58 58
6 25 26 18 17 19 20 17 21 24 17 16 21 19 15 15 14 13 21 21 20 19 24 21 16 12 14 16 15 14 17 19 21 21 17 20 25 24 25 44 48 48 49 50 50 49 49 53 55 55 56 57 56 61 62 63 63 63 62 63 62 60 60 60 61 60 59 60 59 59 57 57 57 56 58 56 55 58 58 54 61 56 57 57 59 55
10 25 24 20 18 18 17 15 17 23 19 17 15 20 16 13 18 17 15 19 19 17 21 27 16 14 11 10 14 15 14 18 23 22 20 19 20 20 24 25 49 48 48 48 50 49 50 53 52 54 55 56 56 59 62 63 64 63 62 63 61 60 60 60 61 59 58 59 57 57 56 56 56 56 58 58 59 57 57 59 58 59 61 56 58 59
7 10 17 19 20 17 17 15 19 16 18 12 25 16 14 16 18 18 16 18 17 22 22 20 16 16 15 15 16 15 16 15 21 22 24 19 21 22 26 25 33 34 50 49 49 51 54 54 56 58 57 57 56 56 60 63 63 62 62 63 60 60 60 59 61 58 58 57 56 57 56 56 57 57 55 58 59 59 58 59 58 58 61 59 59 60
26 23 22 19 19 15 12 12 20 18 15 16 25 18 16 16 21 16 12 14 17 18 14 13 15 13 12 16 15 14 15 19 21 24 21 18 17 21 24 22 23 29 40 48 49 53 54 54 57 55 56 56 57 60 61 62 63 63 62 63 61 60 60 60 61 57 57 57 56 57 57 57 56 55 56 55 55 58 59 59 60 59 56 58 59 57
13 12 13 18 14 13 12 10 12 16 14 18 13 15 18 19 18 19 17 15 20 18 17 16 20 12 14 18 14 13 13 20 23 23 20 20 20 18 21 23 30 22 31 29 41 48 52 55 54 55 55 59 58 58 60 63 62 62 62 62 61 60 59 60 60 57 57 58 56 57 59 58 55 55 54 54 56 57 59 59 58 58 59 57 60 59
14 21 20 11 12 12 13 13 15 15 17 18 20 19 18 16 17 18 19 20 22 17 16 18 18 14 12 16 14 18 20 19 20 22 24 22 22 19 29 22 25 24 25 24 27 37 46 51 54 54 54 57 60 60 60 61 61 61 61 62 60 59 59 59 59 57 57 57 56 56 58 58 54 55 55 54 56 56 58 56 57 59 58 59 57 58
6 10 11 10 9 7 6 6 9 9 13 14 14 16 14 16 17 19 20 22 19 15 16 14 16 17 12 14 22 19 20 20 24 25 25 26 22 23 32 25 24 22 26 25 26 31 48 51 51 58 57 59 60 60 60 60 62 61 60 61 60 60 60 59 59 58 57 57 56 57 58 58 55 55 55 54 55 55 56 57 57 59 58 57 57 58
13 9 9 8 13 4 3 3 2 4 8 7 10 10 15 13 18 18 18 16 16 16 17 13 14 13 11 18 19 15 17 19 23 22 22 24 24 29 25 26 24 25 25 24 29 41 45 49 51 54 55 58 59 59 59 61 61 61 60 61 59 59 60 59 59 58 57 57 56 56 57 58 57 56 56 54 56 55 57 56 57 57 57 56 55 57
14 11 11 9 6 10 5 3 3 0 5 8 9 15 14 14 14 15 14 18 16 20 18 22 18 14 14 15 16 16 19 20 21 26 26 25 30 31 24 26 24 30 27 32 40 43 46 48 47 55 56 57 59 59 59 60 61 61 60 61 59 59 60 59 58 57 57 57 57 57 57 58 57 57 58 56 55 56 57 56 57 57 57 56 57 56
14 13 12 12 11 9 7 3 3 7 8 9 11 11 15 15 16 17 14 13 14 12 16 12 16 14 14 37 19 22 19 20 20 19 26 30 30 34 22 22 28 32 38 42 45 46 49 53 55 56 57 58 58 60 58 58 60 60 60 60 59 58 60 59 57 57 57 56 57 57 57 58 57 57 58 58 57 57 58 56 57 58 58 57 56 56
8 10 9 8 8 7 6 5 4 2 4 6 8 10 13 21 18 14 16 14 14 14 16 18 16 17 24 23 22 23 20 19 19 20 26 26 25 25 28 30 32 37 41 45 48 48 50 53 55 56 58 57 58 58 61 59 59 61 60 60 58 58 60 59 57 57 57 56 57 58 58 57 57 55 57 58 57 58 61 58 57 58 59 58 58 56
6 8 3 5 6 8 9 7 4 5 10 14 7 12 10 15 13 18 20 19 21 15 13 17 19 17 26 19 20 21 20 17 16 19 20 20 22 31 31 32 35 40 43 47 49 49 51 50 53 52 55 55 58 58 60 60 59 59 60 59 58 58 59 59 57 57 57 57 57 57 58 57 58 56 56 56 59 58 59 61 58 59 59 60 58 57
12 14 5 5 7 7 6 4 4 3 4 3 6 6 8 10 17 20 14 16 13 12 16 16 19 10 16 13 15 18 17 16 15 16 16 26 29 31 36 39 40 41 44 46 48 50 50 50 50 50 52 53 55 57 58 58 60 63 61 58 58 58 58 57 57 57 57 58 58 57 58 58 59 58 57 56 59 58 57 60 59 60 59 60 58 57
12 10 8 7 1 1 3 6 7 7 4 1 2 1 3 10 11 14 16 11 10 12 10 12 8 9 4 11 15 17 17 19 17 16 19 24 27 33 37 40 41 43 44 45 48 49 50 50 50 52 53 50 52 57 58 55 58 61 60 58 57 57 59 58 57 57 57 58 58 58 58 59 59 61 60 59 60 58 57 58 60 60 59 60 59 57
17 13 13 8 5 1 4 7 9 8 4 2 2 1 0 7 15 11 15 12 14 14 15 16 10 10 10 25 20 19 19 21 17 17 19 23 24 33 39 41 42 44 45 44 46 49 50 50 49 49 51 50 53 53 56 57 58 56 58 59 56 55 57 60 58 58 57 57 58 58 58 59 57 58 60 60 61 61 59 59 59 60 59 60 58 59
15 25 15 19 6 4 2 12 7 6 7 6 2 6 8 19 14 6 17 5 7 10 9 10 9 16 31 21 20 20 23 30 31 22 24 24 32 35 39 43 44 44 46 46 46 47 48 50 51 49 50 48 51 53 55 55 56 57 57 55 52 56 56 59 57 60 59 58 59 59 60 60 61 61 59 58 61 57 61 60 60 59 61 58 57 59
15 16 14 11 6 6 5 3 5 6 9 12 13 15 12 20 26 12 11 8 10 12 12 8 10 17 27 29 25 25 25 28 25 22 30 32 34 40 42 44 44 44 44 46 46 46 46 48 49 49 50 51 52 51 51 52 53 53 55 55 54 51 52 56 54 58 57 60 59 59 59 59 61 61 60 61 61 60 59 57 59 60 60 61 58 53
28 26 20 15 11 7 5 3 5 -3 5 8 10 11 9 15 14 12 11 13 14 15 16 16 15 21 29 28 27 30 27 21 27 33 30 35 38 39 41 41 43 43 42 44 45 45 46 48 48 47 48 49 51 51 50 51 51 52 52 52 54 53 53 53 52 55 57 58 58 58 59 59 61 58 59 59 59 60 59 60 58 58 59 59 57 59
25 21 14 11 10 9 4 -1 -3 -3 5 5 6 10 9 11 14 14 13 14 10 14 10 11 14 23 32 25 27 31 26 25 33 24 29 35 37 38 39 40 40 40 41 40 42 44 43 43 45 45 47 48 48 49 49 49 49 51 51 50 49 51 53 54 54 55 56 58 58 57 57 58 57 59 57 56 58 59 59 59 59 59 58 57 59 57
21 21 15 10 9 6 6 0 -4 -5 -6 7 10 15 10 8 8 14 13 16 14 14 13 14 13 18 30 29 23 22 20 21 22 30 35 35 37 36 36 37 38 38 38 37 37 38 39 38 37 37 39 41 42 43 46 45 46 47 48 49 49 50 51 52 55 55 52 55 59 59 60 59 60 59 59 58 57 59 59 58 58 57 56 58 59 58
21 23 19 13 12 11 10 7 5 8 7 11 11 12 13 10 17 14 10 14 15 19 16 16 14 24 27 28 22 22 21 21 22 22 24 33 34 33 35 37 38 37 37 36 37 38 39 34 30 32 36 33 36 36 38 42 41 41 42 44 47 45 49 51 52 53 56 56 57 57 58 59 60 60 60 60 60 60 60 59 58 58 57 56 56 57
22 23 20 18 13 11 11 6 12 11 13 10 11 11 9 11 13 17 16 16 15 19 17 18 19 22 30 22 22 21 25 22 24 26 26 29 33 36 37 36 37 37 36 36 39 38 38 39 39 33 36 33 35 35 35 36 37 37 42 42 41 42 43 46 48 49 51 52 54 56 56 56 59 59 60 61 61 61 59 57 57 57 57 57 56 56
19 20 18 20 17 11 9 9 10 11 9 8 9 11 7 11 17 18 18 15 18 15 14 19 22 22 20 20 18 24 23 24 25 26 28 32 34 35 35 36 40 35 36 37 38 37 37 37 39 42 41 38 33 32 34 34 36 37 40 39 40 41 46 46 47 45 47 48 50 52 54 54 56 58 59 59 60 60 60 59 59 57 58 58 56 55
19 16 17 18 12 9 8 8 9 10 10 10 9 9 11 12 17 21 24 18 22 17 12 20 22 22 18 18 20 21 22 24 23 26 32 37 35 33 35 35 33 34 36 35 37 38 39 38 41 41 40 37 37 36 36 35 36 41 39 37 37 39 41 44 48 43 43 46 49 50 52 51 53 53 54 52 56 58 59 59 58 59 59 58 57 58
22 18 19 15 13 12 11 10 11 10 10 10 10 8 8 17 18 18 17 15 15 20 21 20 23 25 20 19 20 21 26 24 23 27 36 24 28 30 34 39 31 31 32 33 36 37 39 39 39 39 41 41 34 33 33 36 35 34 37 38 36 38 39 44 48 44 45 41 45 47 50 50 52 50 53 52 53 53 55 55 57 58 58 59 58 57
22 18 23 20 19 17 15 12 11 10 11 11 7 8 10 12 11 13 18 21 24 19 20 21 24 24 20 22 21 23 27 22 24 23 23 26 23 29 34 35 32 29 27 31 35 35 37 39 38 38 38 38 38 38 36 38 34 34 33 35 34 34 36 32 43 41 47 41 45 48 47 50 51 50 49 52 52 52 51 48 54 56 56 58 57 57
25 20 21 21 19 19 14 12 10 10 9 10 13 15 15 15 19 21 21 22 21 23 22 23 21 22 19 21 22 23 21 20 21 24 24 25 21 24 25 27 29 30 28 25 32 33 35 36 37 37 37 38 36 35 33 39 31 33 33 32 30 29 31 42 46 46 42 47 43 44 41 44 47 47 47 49 48 49 50 52 52 52 52 54 56 56
23 21 19 19 17 18 15 13 11 15 15 14 20 22 19 19 18 19 16 20 24 25 23 20 17 17 25 28 24 21 25 28 28 23 26 29 30 28 21 26 28 30 30 30 26 29 33 33 35 38 36 34 32 31 31 27 30 36 34 36 46 32 45 38 38 31 41 41 45 44 47 45 46 45 46 47 46 50 50 49 49 48 51 52 54 55
21 21 17 18 16 17 15 17 19 18 14 13 21 24 21 20 20 23 24 25 26 26 21 18 18 22 23 25 24 24 24 26 28 29 28 28 28 28 29 29 26 31 32 32 31 33 33 34 36 37 37 38 34 33 36 34 34 37 47 39 31 35 32 29 30 40 37 43 45 45 47 45 46 46 46 49 48 48 47 47 47 50 51 52 52 53
20 18 16 17 16 17 18 20 15 13 13 19 20 18 21 24 20 21 23 23 21 19 21 19 22 24 24 23 24 25 27 25 27 27 26 25 29 29 28 27 29 40 41 38 36 41 41 38 38 38 36 35 35 40 39 30 35 38 33 38 34 33 37 33 29 37 41 46 45 45 46 44 44 46 47 47 47 47 46 46 48 49 50 49 50 51
20 16 17 18 16 17 16 15 12 12 18 20 18 26 28 21 22 22 21 20 19 24 27 23 22 24 25 21 21 23 23 22 23 24 25 25 30 28 29 33 33 38 39 41 46 43 37 34 36 36 36 38 33 28 26 33 35 34 34 34 34 38 38 33 35 33 43 45 45 41 43 44 47 48 47 47 47 46 46 48 49 49 50 50 50 49
18 17 21 17 22 15 16 15 14 18 17 19 20 31 28 28 26 24 21 25 26 22 22 22 21 22 23 24 21 23 25 21 23 25 24 22 26 28 27 26 32 31 34 37 39 39 40 39 34 36 39 36 32 30 34 32 33 36 35 32 30 30 31 42 37 31 45 43 38 42 44 45 45 46 47 46 46 45 46 48 49 49 49 48 49 49
18 21 22 17 18 17 13 12 13 13 12 17 27 29 29 30 30 29 24 21 24 22 22 21 22 23 24 24 22 24 28 22 21 26 25 25 24 26 24 25 26 30 30 32 31 33 39 39 35 31 31 34 33 32 29 28 34 35 35 34 33 30 31 30 33 32 33 35 43 41 44 43 38 44 45 45 44 45 47 47 47 47 48 46 46 47
14 16 20 18 17 16 16 14 13 12 16 25 26 26 28 27 29 28 23 14 26 23 24 23 22 22 23 23 23 24 23 21 22 26 25 26 26 23 23 22 21 26 29 28 29 35 29 31 31 28 29 30 27 26 33 32 35 31 33 33 32 33 31 35 33 36 33 36 33 33 37 44 44 43 46 44 43 47 46 47 46 44 47 45 45 46
16 15 15 14 17 15 15 14 14 18 17 29 28 25 24 24 27 23 14 14 25 26 24 23 23 23 24 24 24 24 23 21 24 26 25 25 25 26 26 24 24 23 22 24 26 29 34 33 29 36 33 29 30 33 31 28 29 33 33 32 32 33 32 33 35 33 35 36 39 38 38 43 43 43 41 40 43 47 48 48 47 46 44 46 43 42
17 18 15 14 14 16 20 15 14 17 28 29 26 25 24 27 24 16 13 21 24 24 23 24 23 24 24 23 24 23 23 23 23 23 25 24 24 24 26 28 26 25 23 23 24 33 24 23 24 23 26 26 28 29 30 29 31 32 31 33 34 32 33 35 34 35 36 37 36 35 34 34 38 44 44 43 46 46 47 47 46 47 47 46 46 47
20 21 20 19 14 13 15 14 15 19 32 31 26 26 27 25 16 15 21 25 25 22 22 21 22 23 23 23 23 23 23 23 24 24 24 24 24 25 25 25 26 26 26 28 31 30 27 25 29 27 26 26 26 27 28 29 31 32 31 32 33 34 34 34 33 35 35 35 33 35 35 37 39 42 45 45 47 48 47 47 46 46 46 46 46 48
15 18 17 17 19 18 18 17 14 13 28 28 25 20 24 21 23 22 22 22 21 21 20 20 21 21 22 22 23 24 23 23 23 22 23 24 24 25 25 25 27 26 27 29 28 25 26 25 26 25 27 26 26 27 27 29 29 28 31 31 34 35 34 34 35 32 32 33 33 36 37 39 42 42 43 43 44 44 45 46 46 46 46 47 48 49
17 15 15 16 17 15 15 16 17 24 23 25 21 19 23 20 22 23 21 18 19 19 18 19 18 20 21 21 21 21 22 21 21 23 23 22 23 25 25 25 26 26 26 25 24 24 25 23 23 25 25 25 25 26 27 28 28 28 29 31 32 34 35 35 34 34 33 34 35 35 35 34 37 39 41 41 42 43 44 45 45 45 45 48 48 47
13 14 19 13 18 18 17 17 23 26 21 17 20 19 20 21 22 21 19 17 16 15 18 16 17 19 20 20 21 20 19 20 20 20 20 20 20 20 21 22 24 24 25 25 23 25 24 21 24 25 25 26 27 26 27 28 29 29 31 32 33 31 32 33 33 34 34 34 33 34 32 36 36 37 38 41 42 42 43 44 45 45 47 48 48 47
20 19 19 16 15 17 16 17 19 16 15 15 15 18 18 19 17 17 17 16 16 16 17 17 18 18 20 20 18 18 19 20 20 19 19 19 17 16 20 18 17 19 20 20 21 21 20 20 24 24 24 24 26 28 31 31 29 30 31 31 31 30 29 30 32 33 34 32 32 34 31 33 34 34 38 41 40 43 43 42 45 46 47 46 46 46
21 19 17 14 15 14 12 15 14 15 15 16 14 15 16 17 16 16 20 21 19 19 19 20 19 19 19 18 17 18 18 17 17 18 19 18 19 19 17 18 20 20 20 20 22 25 24 23 23 23 25 27 28 29 30 30 31 31 32 32 33 32 31 31 33 34 35 36 35 35 35 36 35 35 39 42 41 40 44 44 46 47 46 46 46 45
15 17 15 14 14 13 14 14 15 15 15 15 14 15 15 16 17 18 20 22 22 21 20 19 21 20 20 20 22 23 25 27 27 27 26 25 22 24 23 19 19 18 19 20 21 25 25 23 23 26 26 28 30 30 30 30 30 30 31 32 32 32 33 33 33 33 33 33 35 34 34 35 33 36 36 37 40 40 45 46 47 46 46 45 45 45
14 18 13 14 13 13 14 14 13 16 16 15 15 16 17 17 20 23 23 24 24 23 23 24 24 26 27 27 27 28 28 28 28 28 27 26 26 25 24 23 21 21 21 21 27 29 29 29 28 28 29 30 31 32 33 33 34 33 34 34 34 34 34 34 35 36 34 33 33 34 35 37 36 36 36 43 41 39 39 44 45 45 46 47 46 46
15 15 15 17 15 14 12 14 17 15 16 16 17 18 19 22 26 23 24 25 26 26 29 29 29 29 29 31 28 29 29 28 28 28 27 28 28 28 28 28 28 26 27 31 31 30 31 32 33 35 35 35 34 34 34 34 34 34 33 34 34 35 36 36 36 36 35 34 34 34 35 37 36 36 40 44 41 38 36 33 34 39 44 38 34 37
15 17 16 15 15 15 15 15 18 20 20 21 22 23 23 23 23 25 27 27 28 29 29 29 28 29 29 29 29 29 28 27 27 28 28 28 29 30 30 31 30 31 30 32 34 33 32 32 33 33 32 32 33 32 33 33 34 35 35 35 35 35 35 35 34 35 34 34 35 35 37 37 41 45 44 43 41 39 35 34 33 33 33 33 33 33